![]() |
EMODnet Physics ERDDAP
Easier access to scientific data |
log in|
Brought to you by EMODnet Physics |
| Dataset Title: | NDBC - Collection of dew point temperature (DEWT) TimeSeries - IN SITU MultiPointTimeSeriesObservation
|
| Institution: | NDBC (Dataset ID: TS_DEWT_NDBC) |
| Information: | Summary
| License
| FGDC
| ISO 19115
| Metadata
| Background
| Subset
| Data Access Form
| Make a graph
|
| Name | Last modified | Size | Description | |
|---|---|---|---|---|
| Parent Directory | - | - | ||
| MOKH1_TS_DEWT_012009.nc | 05-Oct-2024 01:25 | 1626630 | ||
| MOKH1_TS_DEWT_012010.nc | 05-Oct-2024 02:28 | 1626955 | ||
| MOKH1_TS_DEWT_012011.nc | 05-Oct-2024 03:29 | 1163682 | ||
| MOKH1_TS_DEWT_012012.nc | 05-Oct-2024 04:31 | 1474236 | ||
| MOKH1_TS_DEWT_012013.nc | 05-Oct-2024 05:40 | 1475852 | ||
| MOKH1_TS_DEWT_012014.nc | 05-Oct-2024 06:45 | 1476460 | ||
| MOKH1_TS_DEWT_012015.nc | 05-Oct-2024 07:48 | 1472402 | ||
| MOKH1_TS_DEWT_012016.nc | 05-Oct-2024 08:46 | 1476884 | ||
| MOKH1_TS_DEWT_012018.nc | 05-Oct-2024 10:51 | 1477048 | ||
| MOKH1_TS_DEWT_012019.nc | 05-Oct-2024 11:50 | 1477050 | ||
| MOKH1_TS_DEWT_012020.nc | 05-Oct-2024 12:39 | 1477030 | ||
| MOKH1_TS_DEWT_012021.nc | 05-Oct-2024 13:33 | 1476406 | ||
| MOKH1_TS_DEWT_012022.nc | 05-Oct-2024 14:16 | 1476117 | ||
| MOKH1_TS_DEWT_012023.nc | 05-Oct-2024 15:04 | 1476070 | ||
| MOKH1_TS_DEWT_022009.nc | 05-Oct-2024 01:30 | 1476871 | ||
| MOKH1_TS_DEWT_022010.nc | 05-Oct-2024 02:33 | 1477043 | ||
| MOKH1_TS_DEWT_022011.nc | 05-Oct-2024 03:34 | 1477081 | ||
| MOKH1_TS_DEWT_022012.nc | 05-Oct-2024 04:37 | 1476933 | ||
| MOKH1_TS_DEWT_022013.nc | 05-Oct-2024 05:45 | 1477083 | ||
| MOKH1_TS_DEWT_022014.nc | 05-Oct-2024 06:49 | 1476308 | ||
| MOKH1_TS_DEWT_022015.nc | 05-Oct-2024 07:53 | 1461351 | ||
| MOKH1_TS_DEWT_022016.nc | 05-Oct-2024 08:50 | 1474954 | ||
| MOKH1_TS_DEWT_022017.nc | 05-Oct-2024 09:52 | 1626496 | ||
| MOKH1_TS_DEWT_022018.nc | 05-Oct-2024 10:56 | 1624893 | ||
| MOKH1_TS_DEWT_022019.nc | 05-Oct-2024 11:55 | 1626601 | ||
| MOKH1_TS_DEWT_022020.nc | 05-Oct-2024 12:43 | 1626932 | ||
| MOKH1_TS_DEWT_022021.nc | 05-Oct-2024 13:36 | 1626903 | ||
| MOKH1_TS_DEWT_022023.nc | 05-Oct-2024 15:08 | 1626471 | ||
| MOKH1_TS_DEWT_032009.nc | 05-Oct-2024 01:35 | 1626936 | ||
| MOKH1_TS_DEWT_032010.nc | 05-Oct-2024 02:38 | 1626486 | ||
| MOKH1_TS_DEWT_032011.nc | 05-Oct-2024 03:39 | 1626488 | ||
| MOKH1_TS_DEWT_032012.nc | 05-Oct-2024 04:43 | 1626750 | ||
| MOKH1_TS_DEWT_032013.nc | 05-Oct-2024 05:51 | 1626502 | ||
| MOKH1_TS_DEWT_032014.nc | 05-Oct-2024 06:55 | 1626880 | ||
| MOKH1_TS_DEWT_032015.nc | 05-Oct-2024 07:59 | 1626949 | ||
| MOKH1_TS_DEWT_032016.nc | 05-Oct-2024 08:56 | 1624475 | ||
| MOKH1_TS_DEWT_032017.nc | 05-Oct-2024 09:56 | 1626858 | ||
| MOKH1_TS_DEWT_032018.nc | 05-Oct-2024 11:01 | 1626961 | ||
| MOKH1_TS_DEWT_032019.nc | 05-Oct-2024 11:59 | 1153813 | ||
| MOKH1_TS_DEWT_032020.nc | 05-Oct-2024 12:48 | 1471043 | ||
| MOKH1_TS_DEWT_032021.nc | 05-Oct-2024 13:40 | 1474125 | ||
| MOKH1_TS_DEWT_032022.nc | 05-Oct-2024 14:25 | 1474287 | ||
| MOKH1_TS_DEWT_042009.nc | 05-Oct-2024 01:39 | 1476795 | ||
| MOKH1_TS_DEWT_042010.nc | 05-Oct-2024 02:42 | 1475830 | ||
| MOKH1_TS_DEWT_042011.nc | 05-Oct-2024 03:45 | 1477040 | ||
| MOKH1_TS_DEWT_042012.nc | 05-Oct-2024 04:48 | 1476789 | ||
| MOKH1_TS_DEWT_042013.nc | 05-Oct-2024 05:56 | 1477013 | ||
| MOKH1_TS_DEWT_042014.nc | 05-Oct-2024 07:01 | 1476808 | ||
| MOKH1_TS_DEWT_042015.nc | 05-Oct-2024 08:03 | 1476328 | ||
| MOKH1_TS_DEWT_042016.nc | 05-Oct-2024 09:03 | 1476997 | ||
| MOKH1_TS_DEWT_042017.nc | 05-Oct-2024 10:01 | 1476957 | ||
| MOKH1_TS_DEWT_042018.nc | 05-Oct-2024 11:05 | 1476372 | ||
| MOKH1_TS_DEWT_042019.nc | 05-Oct-2024 12:04 | 1477026 | ||
| MOKH1_TS_DEWT_042020.nc | 05-Oct-2024 12:52 | 1476762 | ||
| MOKH1_TS_DEWT_042021.nc | 05-Oct-2024 13:43 | 1477043 | ||
| MOKH1_TS_DEWT_052009.nc | 05-Oct-2024 01:43 | 1474054 | ||
| MOKH1_TS_DEWT_052010.nc | 05-Oct-2024 02:47 | 1625450 | ||
| MOKH1_TS_DEWT_052011.nc | 05-Oct-2024 03:51 | 1626849 | ||
| MOKH1_TS_DEWT_052012.nc | 05-Oct-2024 04:53 | 1626734 | ||
| MOKH1_TS_DEWT_052013.nc | 05-Oct-2024 06:02 | 1626711 | ||
| MOKH1_TS_DEWT_052014.nc | 05-Oct-2024 07:06 | 1626876 | ||
| MOKH1_TS_DEWT_052015.nc | 05-Oct-2024 08:08 | 1626633 | ||
| MOKH1_TS_DEWT_052016.nc | 05-Oct-2024 09:08 | 1626654 | ||
| MOKH1_TS_DEWT_052017.nc | 05-Oct-2024 10:05 | 1626871 | ||
| MOKH1_TS_DEWT_052018.nc | 05-Oct-2024 11:10 | 1625790 | ||
| MOKH1_TS_DEWT_052019.nc | 05-Oct-2024 12:09 | 1626370 | ||
| MOKH1_TS_DEWT_052020.nc | 05-Oct-2024 12:57 | 1626455 | ||
| MOKH1_TS_DEWT_052021.nc | 05-Oct-2024 13:46 | 1625760 | ||
| MOKH1_TS_DEWT_052022.nc | 05-Oct-2024 14:32 | 1626180 | ||
| MOKH1_TS_DEWT_052023.nc | 05-Oct-2024 15:22 | 1624955 | ||
| MOKH1_TS_DEWT_062008.nc | 05-Oct-2024 00:45 | 1626907 | ||
| MOKH1_TS_DEWT_062010.nc | 05-Oct-2024 02:53 | 1626952 | ||
| MOKH1_TS_DEWT_062011.nc | 05-Oct-2024 03:56 | 428844 | ||
| MOKH1_TS_DEWT_062012.nc | 05-Oct-2024 04:58 | 1472585 | ||
| MOKH1_TS_DEWT_062013.nc | 05-Oct-2024 06:08 | 1472542 | ||
| MOKH1_TS_DEWT_062015.nc | 05-Oct-2024 08:13 | 1625467 | ||
| MOKH1_TS_DEWT_062016.nc | 05-Oct-2024 09:14 | 1476721 | ||
| MOKH1_TS_DEWT_062017.nc | 05-Oct-2024 10:09 | 1626944 | ||
| MOKH1_TS_DEWT_062018.nc | 05-Oct-2024 11:16 | 1626941 | ||
| MOKH1_TS_DEWT_062019.nc | 05-Oct-2024 12:12 | 1626446 | ||
| MOKH1_TS_DEWT_062020.nc | 05-Oct-2024 13:01 | 1626931 | ||
| MOKH1_TS_DEWT_062021.nc | 05-Oct-2024 13:50 | 1626396 | ||
| MOKH1_TS_DEWT_062022.nc | 05-Oct-2024 14:36 | 1626872 | ||
| MOKH1_TS_DEWT_062023.nc | 05-Oct-2024 15:26 | 1626718 | ||
| MOKH1_TS_DEWT_072008.nc | 05-Oct-2024 00:50 | 1477077 | ||
| MOKH1_TS_DEWT_072009.nc | 05-Oct-2024 01:52 | 1626553 | ||
| MOKH1_TS_DEWT_072010.nc | 05-Oct-2024 02:57 | 1625281 | ||
| MOKH1_TS_DEWT_072011.nc | 05-Oct-2024 04:02 | 1626916 | ||
| MOKH1_TS_DEWT_072012.nc | 05-Oct-2024 05:04 | 1626959 | ||
| MOKH1_TS_DEWT_072013.nc | 05-Oct-2024 06:13 | 1626617 | ||
| MOKH1_TS_DEWT_072014.nc | 05-Oct-2024 07:15 | 424174 | ||
| MOKH1_TS_DEWT_072016.nc | 05-Oct-2024 09:20 | 1476737 | ||
| MOKH1_TS_DEWT_072017.nc | 05-Oct-2024 10:14 | 1474378 | ||
| MOKH1_TS_DEWT_072018.nc | 05-Oct-2024 11:22 | 1475590 | ||
| MOKH1_TS_DEWT_072019.nc | 05-Oct-2024 12:16 | 1471443 | ||
| MOKH1_TS_DEWT_072020.nc | 05-Oct-2024 13:04 | 1477039 | ||
| MOKH1_TS_DEWT_072021.nc | 05-Oct-2024 13:54 | 1477051 | ||
| MOKH1_TS_DEWT_072022.nc | 05-Oct-2024 14:40 | 1477042 | ||
| MOKH1_TS_DEWT_072023.nc | 05-Oct-2024 15:30 | 1476400 | ||
| MOKH1_TS_DEWT_082008.nc | 05-Oct-2024 00:56 | 1476949 | ||
| MOKH1_TS_DEWT_082009.nc | 05-Oct-2024 01:58 | 1475830 | ||
| MOKH1_TS_DEWT_082010.nc | 05-Oct-2024 03:02 | 1476945 | ||
| MOKH1_TS_DEWT_082011.nc | 05-Oct-2024 04:06 | 1476954 | ||
| MOKH1_TS_DEWT_082012.nc | 05-Oct-2024 05:10 | 1476914 | ||
| MOKH1_TS_DEWT_082013.nc | 05-Oct-2024 06:19 | 1476834 | ||
| MOKH1_TS_DEWT_082014.nc | 05-Oct-2024 07:21 | 1477067 | ||
| MOKH1_TS_DEWT_082015.nc | 05-Oct-2024 08:23 | 1477057 | ||
| MOKH1_TS_DEWT_082016.nc | 05-Oct-2024 09:25 | 1476905 | ||
| MOKH1_TS_DEWT_082017.nc | 05-Oct-2024 10:20 | 429787 | ||
| MOKH1_TS_DEWT_082018.nc | 05-Oct-2024 11:28 | 1464249 | ||
| MOKH1_TS_DEWT_082019.nc | 05-Oct-2024 12:19 | 1626739 | ||
| MOKH1_TS_DEWT_082021.nc | 05-Oct-2024 13:57 | 1626517 | ||
| MOKH1_TS_DEWT_082022.nc | 05-Oct-2024 14:44 | 1626893 | ||
| MOKH1_TS_DEWT_082023.nc | 05-Oct-2024 15:35 | 1624317 | ||
| MOKH1_TS_DEWT_092008.nc | 05-Oct-2024 01:03 | 1470198 | ||
| MOKH1_TS_DEWT_092009.nc | 05-Oct-2024 02:03 | 1626955 | ||
| MOKH1_TS_DEWT_092010.nc | 05-Oct-2024 03:08 | 1625243 | ||
| MOKH1_TS_DEWT_092011.nc | 05-Oct-2024 04:10 | 1626906 | ||
| MOKH1_TS_DEWT_092012.nc | 05-Oct-2024 05:17 | 1626699 | ||
| MOKH1_TS_DEWT_092013.nc | 05-Oct-2024 06:25 | 1626846 | ||
| MOKH1_TS_DEWT_092014.nc | 05-Oct-2024 07:27 | 1626692 | ||
| MOKH1_TS_DEWT_092015.nc | 05-Oct-2024 08:27 | 1626674 | ||
| MOKH1_TS_DEWT_092016.nc | 05-Oct-2024 09:29 | 1626394 | ||
| MOKH1_TS_DEWT_092017.nc | 05-Oct-2024 10:27 | 1626649 | ||
| MOKH1_TS_DEWT_092018.nc | 05-Oct-2024 11:33 | 1626518 | ||
| MOKH1_TS_DEWT_092019.nc | 05-Oct-2024 12:23 | 1626852 | ||
| MOKH1_TS_DEWT_092020.nc | 05-Oct-2024 13:14 | 429453 | ||
| MOKH1_TS_DEWT_092021.nc | 05-Oct-2024 14:01 | 1476288 | ||
| MOKH1_TS_DEWT_092022.nc | 05-Oct-2024 14:48 | 1476859 | ||
| MOKH1_TS_DEWT_092023.nc | 05-Oct-2024 15:40 | 1476426 | ||
| MOKH1_TS_DEWT_102008.nc | 05-Oct-2024 01:09 | 1476759 | ||
| MOKH1_TS_DEWT_102009.nc | 05-Oct-2024 02:09 | 1476893 | ||
| MOKH1_TS_DEWT_102010.nc | 05-Oct-2024 03:14 | 1477081 | ||
| MOKH1_TS_DEWT_102011.nc | 05-Oct-2024 04:16 | 1477032 | ||
| MOKH1_TS_DEWT_102012.nc | 05-Oct-2024 05:22 | 1472733 | ||
| MOKH1_TS_DEWT_102013.nc | 05-Oct-2024 06:31 | 1477051 | ||
| MOKH1_TS_DEWT_102014.nc | 05-Oct-2024 07:32 | 1476906 | ||
| MOKH1_TS_DEWT_102015.nc | 05-Oct-2024 08:33 | 1476399 | ||
| MOKH1_TS_DEWT_102016.nc | 05-Oct-2024 09:33 | 1476774 | ||
| MOKH1_TS_DEWT_102017.nc | 05-Oct-2024 10:32 | 1476657 | ||
| MOKH1_TS_DEWT_102018.nc | 05-Oct-2024 11:38 | 1476703 | ||
| MOKH1_TS_DEWT_102019.nc | 05-Oct-2024 12:28 | 1471971 | ||
| MOKH1_TS_DEWT_102020.nc | 05-Oct-2024 13:18 | 1477053 | ||
| MOKH1_TS_DEWT_102021.nc | 05-Oct-2024 14:04 | 1472783 | ||
| MOKH1_TS_DEWT_102022.nc | 05-Oct-2024 14:52 | 1476823 | ||
| MOKH1_TS_DEWT_102023.nc | 05-Oct-2024 15:44 | 429889 | ||
| MOKH1_TS_DEWT_112008.nc | 05-Oct-2024 01:14 | 1626080 | ||
| MOKH1_TS_DEWT_112009.nc | 05-Oct-2024 02:15 | 1626773 | ||
| MOKH1_TS_DEWT_112010.nc | 05-Oct-2024 03:18 | 1626517 | ||
| MOKH1_TS_DEWT_112011.nc | 05-Oct-2024 04:22 | 1624942 | ||
| MOKH1_TS_DEWT_112012.nc | 05-Oct-2024 05:28 | 1626884 | ||
| MOKH1_TS_DEWT_112013.nc | 05-Oct-2024 06:35 | 1626874 | ||
| MOKH1_TS_DEWT_112014.nc | 05-Oct-2024 07:37 | 1626889 | ||
| MOKH1_TS_DEWT_112015.nc | 05-Oct-2024 08:37 | 1626815 | ||
| MOKH1_TS_DEWT_112016.nc | 05-Oct-2024 09:38 | 1626552 | ||
| MOKH1_TS_DEWT_112017.nc | 05-Oct-2024 10:39 | 1625660 | ||
| MOKH1_TS_DEWT_112018.nc | 05-Oct-2024 11:43 | 1626536 | ||
| MOKH1_TS_DEWT_112019.nc | 05-Oct-2024 12:31 | 1472966 | ||
| MOKH1_TS_DEWT_112020.nc | 05-Oct-2024 13:22 | 1477506 | ||
| MOKH1_TS_DEWT_112021.nc | 05-Oct-2024 14:08 | 1624626 | ||
| MOKH1_TS_DEWT_112022.nc | 05-Oct-2024 14:55 | 1626852 | ||
| MOKH1_TS_DEWT_112023.nc | 05-Oct-2024 15:48 | 1466886 | ||
| MOKH1_TS_DEWT_122008.nc | 05-Oct-2024 01:19 | 1474775 | ||
| MOKH1_TS_DEWT_122009.nc | 05-Oct-2024 02:22 | 1626901 | ||
| MOKH1_TS_DEWT_122010.nc | 05-Oct-2024 03:23 | 451173 | ||
| MOKH1_TS_DEWT_122011.nc | 05-Oct-2024 04:27 | 449509 | ||
| MOKH1_TS_DEWT_122012.nc | 05-Oct-2024 05:35 | 451005 | ||
| MOKH1_TS_DEWT_122013.nc | 05-Oct-2024 06:39 | 451619 | ||
| MOKH1_TS_DEWT_122014.nc | 05-Oct-2024 07:43 | 451437 | ||
| MOKH1_TS_DEWT_122015.nc | 05-Oct-2024 08:42 | 432671 | ||
| MOKH1_TS_DEWT_122016.nc | 05-Oct-2024 09:43 | 450404 | ||
| MOKH1_TS_DEWT_122017.nc | 05-Oct-2024 10:45 | 450916 | ||
| MOKH1_TS_DEWT_122018.nc | 05-Oct-2024 11:47 | 450943 | ||
| MOKH1_TS_DEWT_122019.nc | 05-Oct-2024 12:35 | 450642 | ||
| MOKH1_TS_DEWT_122021.nc | 05-Oct-2024 14:12 | 451000 | ||
| MOKH1_TS_DEWT_122022.nc | 05-Oct-2024 14:59 | 450789 | ||
| MOKH1_TS_DEWT_122023.nc | 05-Oct-2024 15:52 | 451718 | ||